Location: Canazei
(46.4667°N, 11.7667°E)
Time: 06:02:34
(UTC+00:00)

Cosmos 2082 Rocket - Pass Details

Date: 21 April 2021
Orbit: 835 x 852 km, 71.0° (Epoch: 15 May)

Event Time Altitude Azimuth Distance (km) Brightness Sun altitude
Rises 02:42:37 0° 320° (NW) 3,394 5.3 -15.0°
Reaches altitude 10° 02:45:44 10° 303° (WNW) 2,453 4.4 -14.6°
Maximum altitude 02:49:31 19° 260° (W) 1,897 3.5 -14.0°
Enters shadow 02:50:02 19° 253° (WSW) 1,908 3.5 -13.9°
